| time (UTC) | temp F | wind direction | speed knots | gust knots | rain 1hr in | rain 24hr in | rain mn in | humidity % | barometer mb |
| 20260505210500 | 81 | 213 | 5.2 | 8.7 | 0.00 | 0.00 | 0.00 | 42 | 1009.6 |
| 20260505205956 | 81 | 224 | 7.0 | 12.2 | 0.00 | 0.00 | 0.00 | 40 | 1009.6 |
| 20260505205455 | 81 | 232 | 5.2 | 12.2 | 0.00 | 0.00 | 0.00 | 41 | 1009.8 |
| 20260505204951 | 81 | 170 | 9.6 | 13.0 | 0.00 | 0.00 | 0.00 | 41 | 1009.8 |
| 20260505204449 | 80 | 228 | 6.1 | 11.3 | 0.00 | 0.00 | 0.00 | 41 | 1009.8 |
| 20260505203946 | 80 | 183 | 4.3 | 7.8 | 0.00 | 0.00 | 0.00 | 43 | 1009.8 |
| 20260505203443 | 81 | 245 | 9.6 | 14.8 | 0.00 | 0.00 | 0.00 | 40 | 1009.8 |
| 20260505202939 | 81 | 190 | 7.0 | 11.3 | 0.00 | 0.00 | 0.00 | 42 | 1009.7 |
| 20260505202436 | 81 | 204 | 6.1 | 13.0 | 0.00 | 0.00 | 0.00 | 42 | 1009.8 |
| 20260505201932 | 81 | 255 | 9.6 | 14.8 | 0.00 | 0.00 | 0.00 | 42 | 1009.7 |
| 20260505201429 | 81 | 258 | 4.3 | 9.6 | 0.00 | 0.00 | 0.00 | 45 | 1009.6 |
| 20260505200927 | 81 | 185 | 9.6 | 13.0 | 0.00 | 0.00 | 0.00 | 41 | 1010.0 |
| 20260505200424 | 81 | 214 | 4.3 | 13.0 | 0.00 | 0.00 | 0.00 | 44 | 1009.8 |
| 20260505195920 | 81 | 212 | 6.1 | 13.0 | 0.00 | 0.00 | 0.00 | 40 | 1009.9 |
| 20260505195417 | 80 | 207 | 6.1 | 14.8 | 0.00 | 0.00 | 0.00 | 40 | 1010.0 |
| 20260505194914 | 81 | 276 | 4.3 | 12.2 | 0.00 | 0.00 | 0.00 | 41 | 1010.3 |
| 20260505194411 | 81 | 215 | 8.7 | 14.8 | 0.00 | 0.00 | 0.00 | 41 | 1010.6 |
| 20260505193906 | 81 | 252 | 7.8 | 11.3 | 0.00 | 0.00 | 0.00 | 40 | 1010.1 |
| 20260505193404 | 80 | 273 | 6.1 | 12.2 | 0.00 | 0.00 | 0.00 | 41 | 1010.1 |
| 20260505192901 | 80 | 179 | 12.2 | 14.8 | 0.00 | 0.00 | 0.00 | 40 | 1010.4 |
| 20260505192359 | 80 | 253 | 4.3 | 13.0 | 0.00 | 0.00 | 0.00 | 43 | 1010.3 |
| 20260505191856 | 80 | 211 | 10.4 | 17.4 | 0.00 | 0.00 | 0.00 | 41 | 1010.3 |
| 20260505191355 | 80 | 229 | 7.8 | 13.9 | 0.00 | 0.00 | 0.00 | 42 | 1010.4 |
| 20260505190852 | 81 | 250 | 6.1 | 11.3 | 0.00 | 0.00 | 0.00 | 43 | 1010.4 |
| 20260505190347 | 80 | 232 | 8.7 | 12.2 | 0.00 | 0.00 | 0.00 | 44 | 1010.3 |
| 20260505185843 | 80 | 239 | 7.8 | 13.0 | 0.00 | 0.00 | 0.00 | 42 | 1010.8 |
| 20260505185339 | 80 | 253 | 7.0 | 11.3 | 0.00 | 0.00 | 0.00 | 45 | 1010.8 |
| 20260505184836 | 80 | 212 | 4.3 | 8.7 | 0.00 | 0.00 | 0.00 | 45 | 1010.8 |
| 20260505184333 | 80 | 233 | 3.5 | 11.3 | 0.00 | 0.00 | 0.00 | 49 | 1011.0 |
| 20260505183830 | 80 | 226 | 7.8 | 11.3 | 0.00 | 0.00 | 0.00 | 47 | 1010.8 |
| 20260505183326 | 79 | 212 | 7.0 | 11.3 | 0.00 | 0.00 | 0.00 | 45 | 1010.7 |
| 20260505182823 | 79 | 178 | 10.4 | 13.0 | 0.00 | 0.00 | 0.00 | 45 | 1010.7 |
| 20260505182320 | 80 | 191 | 7.8 | 9.6 | 0.00 | 0.00 | 0.00 | 44 | 1011.2 |
| 20260505181817 | 80 | 230 | 9.6 | 13.9 | 0.00 | 0.00 | 0.00 | 46 | 1011.1 |
| 20260505181314 | 80 | 223 | 9.6 | 13.9 | 0.00 | 0.00 | 0.00 | 45 | 1011.0 |
| 20260505180811 | 79 | 204 | 6.1 | 9.6 | 0.00 | 0.00 | 0.00 | 46 | 1011.0 |
| 20260505180307 | 79 | 206 | 8.7 | 13.9 | 0.00 | 0.00 | 0.00 | 44 | 1011.3 |
| 20260505175804 | 80 | 194 | 6.1 | 12.2 | 0.00 | 0.00 | 0.00 | 44 | 1011.2 |
| 20260505175300 | 79 | 265 | 5.2 | 9.6 | 0.00 | 0.00 | 0.00 | 47 | 1011.3 |
| 20260505174756 | 80 | 212 | 9.6 | 12.2 | 0.00 | 0.00 | 0.00 | 43 | 1011.3 |
| 20260505174254 | 79 | 206 | 6.1 | 13.0 | 0.00 | 0.00 | 0.00 | 44 | 1011.4 |
| 20260505173750 | 79 | 202 | 9.6 | 13.9 | 0.00 | 0.00 | 0.00 | 45 | 1011.4 |
| 20260505173247 | 80 | 279 | 7.0 | 12.2 | 0.00 | 0.00 | 0.00 | 46 | 1011.5 |
| 20260505172743 | 80 | 204 | 7.0 | 12.2 | 0.00 | 0.00 | 0.00 | 45 | 1011.5 |
| 20260505172241 | 79 | 230 | 5.2 | 12.2 | 0.00 | 0.00 | 0.00 | 47 | 1011.4 |
| 20260505171740 | 79 | 209 | 4.3 | 9.6 | 0.00 | 0.00 | 0.00 | 45 | 1011.5 |
| 20260505171238 | 79 | 210 | 5.2 | 11.3 | 0.00 | 0.00 | 0.00 | 45 | 1011.6 |
| 20260505170734 | 79 | 199 | 5.2 | 11.3 | 0.00 | 0.00 | 0.00 | 45 | 1011.8 |
| 20260505170232 | 79 | 195 | 7.0 | 13.9 | 0.00 | 0.00 | 0.00 | 45 | 1011.5 |
| 20260505165727 | 79 | 248 | 7.0 | 12.2 | 0.00 | 0.00 | 0.00 | 47 | 1011.7 |
| 20260505165223 | 79 | 203 | 5.2 | 11.3 | 0.00 | 0.00 | 0.00 | 48 | 1011.8 |
| 20260505164718 | 78 | 206 | 8.7 | 11.3 | 0.00 | 0.00 | 0.00 | 46 | 1011.8 |
| 20260505164216 | 79 | 206 | 7.0 | 8.7 | 0.00 | 0.00 | 0.00 | 47 | 1011.9 |
| 20260505163714 | 78 | 205 | 7.8 | 11.3 | 0.00 | 0.00 | 0.00 | 48 | 1011.9 |
| 20260505163212 | 78 | 181 | 7.0 | 12.2 | 0.00 | 0.00 | 0.00 | 48 | 1012.1 |
| 20260505162709 | 78 | 241 | 8.7 | 11.3 | 0.00 | 0.00 | 0.00 | 49 | 1012.2 |
| 20260505162206 | 78 | 232 | 4.3 | 9.6 | 0.00 | 0.00 | 0.00 | 50 | 1012.4 |
| 20260505161703 | 78 | 266 | 9.6 | 13.0 | 0.00 | 0.00 | 0.00 | 48 | 1012.4 |
| 20260505161201 | 78 | 209 | 7.8 | 12.2 | 0.00 | 0.00 | 0.00 | 51 | 1012.4 |
| 20260505160658 | 77 | 241 | 4.3 | 7.8 | 0.00 | 0.00 | 0.00 | 53 | 1012.4 |
| 20260505160155 | 77 | 177 | 6.1 | 11.3 | 0.00 | 0.00 | 0.00 | 50 | 1012.6 |
| 20260505153135 | 76 | 209 | 5.2 | 7.8 | 0.00 | 0.00 | 0.00 | 53 | 1012.7 |
| 20260505152631 | 76 | 267 | 7.0 | 9.6 | 0.00 | 0.00 | 0.00 | 52 | 1012.5 |
| 20260505152127 | 76 | 248 | 6.1 | 11.3 | 0.00 | 0.00 | 0.00 | 52 | 1012.5 |
| 20260505151623 | 75 | 275 | 5.2 | 9.6 | 0.00 | 0.00 | 0.00 | 55 | 1012.4 |
| 20260505151120 | 76 | 240 | 7.0 | 11.3 | 0.00 | 0.00 | 0.00 | 54 | 1012.4 |
| 20260505150616 | 76 | 192 | 7.8 | 12.2 | 0.00 | 0.00 | 0.00 | 54 | 1012.2 |
| 20260505150113 | 75 | 197 | 4.3 | 7.8 | 0.00 | 0.00 | 0.00 | 56 | 1012.3 |
| 20260505140542 | 71 | 203 | 4.3 | 7.8 | 0.00 | 0.00 | 0.00 | 58 | 1012.9 |
| 20260505124955 | 66 | 162 | 3.5 | 4.3 | 0.00 | 0.00 | 0.00 | 68 | 1013.5 |
| 20260505124452 | 65 | 187 | 2.6 | 5.2 | 0.00 | 0.00 | 0.00 | 68 | 1013.5 |
| 20260505123948 | 65 | 251 | 3.5 | 7.8 | 0.00 | 0.00 | 0.00 | 68 | 1013.5 |
| 20260505123445 | 64 | 275 | 4.3 | 7.0 | 0.00 | 0.00 | 0.00 | 69 | 1013.5 |
| 20260505122941 | 64 | 215 | 4.3 | 5.2 | 0.00 | 0.00 | 0.00 | 70 | 1013.5 |
| 20260505122438 | 64 | 286 | 0.9 | 5.2 | 0.00 | 0.00 | 0.00 | 71 | 1013.3 |
| 20260505121935 | 63 | 197 | 5.2 | 7.0 | 0.00 | 0.00 | 0.00 | 70 | 1013.5 |
| 20260505121432 | 63 | 197 | 4.3 | 7.8 | 0.00 | 0.00 | 0.00 | 70 | 1013.5 |
| 20260505120927 | 63 | 213 | 5.2 | 7.0 | 0.00 | 0.00 | 0.00 | 71 | 1013.5 |
| 20260505120424 | 63 | 255 | 4.3 | 7.0 | 0.00 | 0.00 | 0.00 | 71 | 1013.5 |
| 20260505115923 | 62 | 219 | 3.5 | 7.0 | 0.00 | 0.00 | 0.00 | 71 | 1013.5 |
| 20260505115420 | 62 | 206 | 4.3 | 6.1 | 0.00 | 0.00 | 0.00 | 71 | 1013.3 |
| 20260505114918 | 62 | 212 | 5.2 | 7.0 | 0.00 | 0.00 | 0.00 | 72 | 1013.2 |
| 20260505114414 | 62 | 275 | 1.7 | 2.6 | 0.00 | 0.00 | 0.00 | 73 | 1013.2 |
| 20260505113910 | 61 | 214 | 3.5 | 5.2 | 0.00 | 0.00 | 0.00 | 73 | 1012.9 |
| 20260505113407 | 61 | 196 | 3.5 | 5.2 | 0.00 | 0.00 | 0.00 | 74 | 1013.1 |
| 20260505112903 | 60 | 185 | 2.6 | 5.2 | 0.00 | 0.00 | 0.00 | 75 | 1013.0 |
| 20260505112401 | 60 | 299 | 1.7 | 5.2 | 0.00 | 0.00 | 0.00 | 75 | 1013.0 |
| 20260505111856 | 60 | 5 | 4.3 | 6.1 | 0.00 | 0.00 | 0.00 | 74 | 1013.0 |
| 20260505111352 | 60 | 301 | 1.7 | 2.6 | 0.00 | 0.00 | 0.00 | 75 | 1012.8 |
| 20260505110848 | 60 | 204 | 2.6 | 5.2 | 0.00 | 0.00 | 0.00 | 75 | 1012.6 |
| 20260505110345 | 60 | 221 | 3.5 | 4.3 | 0.00 | 0.00 | 0.00 | 75 | 1012.7 |
| 20260505101815 | 59 | 224 | 4.3 | 6.1 | 0.00 | 0.00 | 0.00 | 76 | 1012.1 |
| 20260505101310 | 59 | 214 | 3.5 | 6.1 | 0.00 | 0.00 | 0.00 | 77 | 1012.0 |
| 20260505100807 | 59 | 215 | 2.6 | 5.2 | 0.00 | 0.00 | 0.00 | 76 | 1012.0 |
| 20260505100304 | 59 | 222 | 5.2 | 7.0 | 0.00 | 0.00 | 0.00 | 76 | 1012.1 |
| 20260505095759 | 59 | 196 | 3.5 | 6.1 | 0.00 | 0.00 | 0.00 | 76 | 1012.1 |
| 20260505095257 | 60 | 196 | 3.5 | 7.8 | 0.00 | 0.00 | 0.00 | 75 | 1012.1 |
| 20260505094752 | 60 | 271 | 2.6 | 6.1 | 0.00 | 0.00 | 0.00 | 75 | 1011.9 |
| 20260505094249 | 60 | 241 | 2.6 | 7.8 | 0.00 | 0.00 | 0.00 | 74 | 1012.0 |
| 20260505093745 | 60 | 209 | 6.1 | 7.0 | 0.00 | 0.00 | 0.00 | 74 | 1012.0 |
| 20260505093243 | 60 | 215 | 2.6 | 7.0 | 0.00 | 0.00 | 0.00 | 74 | 1011.7 |
| 20260505092740 | 60 | 170 | 0.9 | 5.2 | 0.00 | 0.00 | 0.00 | 74 | 1012.1 |
| 20260505092238 | 60 | 295 | 1.7 | 5.2 | 0.00 | 0.00 | 0.00 | 74 | 1011.9 |
| 20260505091735 | 60 | 156 | 2.6 | 5.2 | 0.00 | 0.00 | 0.00 | 74 | 1011.9 |
| 20260505091233 | 60 | 263 | 2.6 | 2.6 | 0.00 | 0.00 | 0.00 | 74 | 1011.7 |
| 20260505090730 | 60 | 210 | 2.6 | 5.2 | 0.00 | 0.00 | 0.00 | 74 | 1011.6 |
| 20260505090229 | 60 | 310 | 1.7 | 2.6 | 0.00 | 0.00 | 0.00 | 74 | 1011.8 |
| 20260505085726 | 60 | 318 | 2.6 | 5.2 | 0.00 | 0.00 | 0.00 | 74 | 1011.5 |
| 20260505085224 | 60 | 219 | 3.5 | 4.3 | 0.00 | 0.00 | 0.00 | 74 | 1011.6 |
| 20260505084721 | 60 | 265 | 1.7 | 4.3 | 0.00 | 0.00 | 0.00 | 74 | 1011.6 |
| 20260505084220 | 61 | 171 | 2.6 | 5.2 | 0.00 | 0.00 | 0.00 | 73 | 1011.4 |
| 20260505083716 | 61 | 152 | 2.6 | 4.3 | 0.00 | 0.00 | 0.00 | 72 | 1011.6 |
| 20260505083213 | 61 | 335 | 1.7 | 4.3 | 0.00 | 0.00 | 0.00 | 72 | 1011.6 |
| 20260505082709 | 61 | 250 | 1.7 | 6.1 | 0.00 | 0.00 | 0.00 | 71 | 1011.5 |
| 20260505082207 | 61 | 253 | 2.6 | 5.2 | 0.00 | 0.00 | 0.00 | 71 | 1011.7 |
| 20260505081702 | 62 | 268 | 3.5 | 7.8 | 0.00 | 0.00 | 0.00 | 70 | 1011.6 |
| 20260505081200 | 62 | 319 | 0.9 | 4.3 | 0.00 | 0.00 | 0.00 | 70 | 1011.7 |
| 20260505080657 | 62 | 178 | 3.5 | 6.1 | 0.00 | 0.00 | 0.00 | 70 | 1011.6 |
| 20260505080152 | 62 | 221 | 2.6 | 5.2 | 0.00 | 0.00 | 0.00 | 70 | 1011.6 |
| 20260505075648 | 62 | 263 | 2.6 | 5.2 | 0.00 | 0.00 | 0.00 | 69 | 1011.6 |
| 20260505075145 | 62 | 200 | 2.6 | 5.2 | 0.00 | 0.00 | 0.00 | 70 | 1011.5 |
| 20260505074643 | 62 | 262 | 1.7 | 4.3 | 0.00 | 0.00 | 0.00 | 69 | 1011.5 |
| 20260505074139 | 62 | 196 | 2.6 | 6.1 | 0.00 | 0.00 | 0.00 | 69 | 1011.5 |
| 20260505073637 | 62 | 195 | 2.6 | 5.2 | 0.00 | 0.00 | 0.00 | 69 | 1011.4 |
| 20260505073135 | 62 | 228 | 1.7 | 2.6 | 0.00 | 0.00 | 0.00 | 69 | 1011.4 |
| 20260505072630 | 62 | 210 | 2.6 | 5.2 | 0.00 | 0.00 | 0.00 | 69 | 1011.1 |
| 20260505072127 | 62 | 223 | 1.7 | 2.6 | 0.00 | 0.00 | 0.00 | 69 | 1011.3 |
| 20260505071623 | 62 | 248 | 2.6 | 4.3 | 0.00 | 0.00 | 0.00 | 70 | 1011.3 |
| 20260505071121 | 62 | 264 | 1.7 | 4.3 | 0.00 | 0.00 | 0.00 | 70 | 1011.2 |
| 20260505070618 | 61 | 304 | 0.9 | 1.7 | 0.00 | 0.00 | 0.00 | 71 | 1011.1 |
| 20260505070114 | 61 | 215 | 1.7 | 2.6 | 0.00 | 0.00 | 0.00 | 71 | 1011.3 |
| 20260505065610 | 62 | 328 | 0.0 | 5.2 | 0.00 | 0.00 | 0.00 | 71 | 1011.2 |
| 20260505065107 | 62 | 223 | 2.6 | 4.3 | 0.00 | 0.00 | 0.00 | 70 | 1011.3 |
| 20260505064604 | 61 | 211 | 2.6 | 4.3 | 0.00 | 0.00 | 0.00 | 71 | 1011.3 |
| 20260505064103 | 62 | 296 | 1.7 | 1.7 | 0.00 | 0.00 | 0.00 | 71 | 1011.4 |
| 20260505063559 | 62 | 283 | 0.9 | 2.6 | 0.00 | 0.00 | 0.00 | 70 | 1011.4 |
| 20260505063055 | 62 | 194 | 1.7 | 4.3 | 0.00 | 0.00 | 0.00 | 70 | 1011.6 |
| 20260505062551 | 62 | 288 | 0.9 | 2.6 | 0.00 | 0.00 | 0.00 | 70 | 1011.6 |
| 20260505062049 | 62 | 307 | 1.7 | 2.6 | 0.00 | 0.00 | 0.00 | 70 | 1011.9 |
| 20260505061546 | 62 | 212 | 2.6 | 4.3 | 0.00 | 0.00 | 0.00 | 70 | 1011.5 |
| 20260505061044 | 62 | 241 | 1.7 | 6.1 | 0.00 | 0.00 | 0.00 | 70 | 1011.7 |
| 20260505060541 | 62 | 332 | 1.7 | 4.3 | 0.00 | 0.00 | 0.00 | 70 | 1011.6 |
| 20260505060038 | 62 | 223 | 1.7 | 5.2 | 0.00 | 0.00 | 0.00 | 69 | 1011.5 |
| 20260505055533 | 63 | 209 | 4.3 | 5.2 | 0.00 | 0.00 | 0.00 | 69 | 1011.8 |
| 20260505055030 | 63 | 217 | 5.2 | 7.0 | 0.00 | 0.00 | 0.00 | 68 | 1011.7 |
| 20260505054527 | 63 | 174 | 2.6 | 6.1 | 0.00 | 0.00 | 0.00 | 68 | 1011.7 |
| 20260505054026 | 63 | 214 | 2.6 | 6.1 | 0.00 | 0.00 | 0.00 | 68 | 1011.7 |
| 20260505053522 | 63 | 184 | 2.6 | 5.2 | 0.00 | 0.00 | 0.00 | 68 | 1011.8 |
| 20260505053019 | 64 | 203 | 3.5 | 5.2 | 0.00 | 0.00 | 0.00 | 67 | 1011.7 |
| 20260505052516 | 64 | 200 | 3.5 | 5.2 | 0.00 | 0.00 | 0.00 | 66 | 1011.8 |
| 20260505052014 | 64 | 234 | 4.3 | 5.2 | 0.00 | 0.00 | 0.00 | 66 | 1011.9 |
| 20260505051510 | 64 | 208 | 3.5 | 5.2 | 0.00 | 0.00 | 0.00 | 65 | 1011.8 |
| 20260505051009 | 64 | 216 | 2.6 | 6.1 | 0.00 | 0.00 | 0.00 | 65 | 1011.6 |
| 20260505050506 | 64 | 289 | 1.7 | 7.0 | 0.00 | 0.00 | 0.00 | 65 | 1011.6 |
| 20260505041434 | 64 | 209 | 3.5 | 7.0 | 0.00 | 0.00 | 0.00 | 63 | 1011.6 |
| 20260505040931 | 64 | 203 | 2.6 | 6.1 | 0.00 | 0.00 | 0.00 | 64 | 1011.4 |
| 20260505040428 | 65 | 222 | 2.6 | 4.3 | 0.00 | 0.00 | 0.00 | 63 | 1011.5 |
| 20260505035925 | 64 | 169 | 3.5 | 4.3 | 0.00 | 0.00 | 0.00 | 63 | 1011.3 |
| 20260505035421 | 65 | 299 | 4.3 | 5.2 | 0.00 | 0.00 | 0.00 | 62 | 1011.3 |
| 20260505034919 | 65 | 206 | 4.3 | 6.1 | 0.00 | 0.00 | 0.00 | 62 | 1011.3 |
| 20260505034415 | 65 | 128 | 3.5 | 7.0 | 0.00 | 0.00 | 0.00 | 61 | 1011.3 |
| 20260505033912 | 65 | 172 | 2.6 | 2.6 | 0.00 | 0.00 | 0.00 | 62 | 1011.3 |
| 20260505033409 | 65 | 220 | 2.6 | 5.2 | 0.00 | 0.00 | 0.00 | 61 | 1011.4 |
| 20260505032907 | 65 | 250 | 1.7 | 2.6 | 0.00 | 0.00 | 0.00 | 62 | 1011.2 |
| 20260505032403 | 65 | 241 | 2.6 | 5.2 | 0.00 | 0.00 | 0.00 | 61 | 1011.1 |
| 20260505031900 | 65 | 220 | 2.6 | 7.0 | 0.00 | 0.00 | 0.00 | 61 | 1011.5 |
| 20260505031357 | 65 | 219 | 4.3 | 6.1 | 0.00 | 0.00 | 0.00 | 61 | 1011.2 |
| 20260505030854 | 65 | 258 | 2.6 | 5.2 | 0.00 | 0.00 | 0.00 | 61 | 1011.2 |
| 20260505030350 | 65 | 282 | 3.5 | 6.1 | 0.00 | 0.00 | 0.00 | 60 | 1011.4 |
| 20260505025845 | 64 | 232 | 4.3 | 7.8 | 0.00 | 0.00 | 0.00 | 62 | 1011.5 |
| 20260505025343 | 64 | 236 | 4.3 | 6.1 | 0.00 | 0.00 | 0.00 | 62 | 1011.2 |
| 20260505024842 | 64 | 272 | 0.9 | 5.2 | 0.00 | 0.00 | 0.00 | 62 | 1011.6 |
| 20260505024339 | 64 | 221 | 3.5 | 4.3 | 0.00 | 0.00 | 0.00 | 61 | 1011.2 |
| 20260505023836 | 65 | 192 | 2.6 | 4.3 | 0.00 | 0.00 | 0.00 | 60 | 1011.1 |
| 20260505023333 | 65 | 225 | 3.5 | 6.1 | 0.00 | 0.00 | 0.00 | 60 | 1011.4 |
| 20260505022830 | 65 | 167 | 2.6 | 4.3 | 0.00 | 0.00 | 0.00 | 60 | 1011.3 |
| 20260505022327 | 66 | 209 | 2.6 | 7.0 | 0.00 | 0.00 | 0.00 | 59 | 1011.2 |
| 20260505021825 | 66 | 248 | 2.6 | 6.1 | 0.00 | 0.00 | 0.00 | 58 | 1011.2 |
| 20260505021321 | 66 | 232 | 2.6 | 5.2 | 0.00 | 0.00 | 0.00 | 58 | 1011.1 |
| 20260505020817 | 66 | 232 | 4.3 | 8.7 | 0.00 | 0.00 | 0.00 | 57 | 1011.2 |
| 20260505020312 | 66 | 257 | 2.6 | 5.2 | 0.00 | 0.00 | 0.00 | 58 | 1011.0 |
| 20260505015809 | 67 | 238 | 3.5 | 5.2 | 0.00 | 0.00 | 0.00 | 57 | 1011.1 |
| 20260505015307 | 67 | 242 | 4.3 | 6.1 | 0.00 | 0.00 | 0.00 | 56 | 1011.3 |
| 20260505014804 | 67 | 33 | 3.5 | 6.1 | 0.00 | 0.00 | 0.00 | 55 | 1011.2 |
| 20260505014301 | 67 | 139 | 4.3 | 7.0 | 0.00 | 0.00 | 0.00 | 55 | 1011.0 |
| 20260505013757 | 66 | 230 | 2.6 | 5.2 | 0.00 | 0.00 | 0.00 | 56 | 1010.9 |
| 20260505013255 | 66 | 147 | 3.5 | 5.2 | 0.00 | 0.00 | 0.00 | 55 | 1010.6 |
| 20260505012753 | 67 | 295 | 3.5 | 7.0 | 0.00 | 0.00 | 0.00 | 55 | 1011.0 |
| 20260505012250 | 67 | 196 | 2.6 | 5.2 | 0.00 | 0.00 | 0.00 | 55 | 1010.9 |
| 20260505011745 | 67 | 230 | 2.6 | 5.2 | 0.00 | 0.00 | 0.00 | 55 | 1011.0 |
| 20260505011243 | 67 | 200 | 1.7 | 4.3 | 0.00 | 0.00 | 0.00 | 54 | 1011.0 |
| 20260505010738 | 67 | 193 | 2.6 | 4.3 | 0.00 | 0.00 | 0.00 | 54 | 1011.0 |
| 20260505010235 | 67 | 204 | 1.7 | 6.1 | 0.00 | 0.00 | 0.00 | 54 | 1010.7 |
| 20260505005731 | 67 | 3 | 0.9 | 4.3 | 0.00 | 0.00 | 0.00 | 54 | 1010.6 |
| 20260505005228 | 67 | 183 | 1.7 | 2.6 | 0.00 | 0.00 | 0.00 | 53 | 1010.8 |
| 20260505004726 | 67 | 200 | 4.3 | 5.2 | 0.00 | 0.00 | 0.00 | 52 | 1010.6 |
| 20260505004222 | 68 | 177 | 3.5 | 5.2 | 0.00 | 0.00 | 0.00 | 52 | 1010.2 |
| 20260505003719 | 68 | 276 | 1.7 | 5.2 | 0.00 | 0.00 | 0.00 | 52 | 1010.3 |
| 20260505003217 | 68 | 193 | 3.5 | 7.0 | 0.00 | 0.00 | 0.00 | 51 | 1010.6 |
| 20260505002713 | 68 | 240 | 4.3 | 7.8 | 0.00 | 0.00 | 0.00 | 51 | 1010.7 |
| 20260505002211 | 68 | 200 | 3.5 | 5.2 | 0.00 | 0.00 | 0.00 | 51 | 1010.4 |
| 20260505001708 | 68 | 194 | 2.6 | 4.3 | 0.00 | 0.00 | 0.00 | 51 | 1010.6 |
| 20260505001205 | 68 | 214 | 4.3 | 8.7 | 0.00 | 0.00 | 0.00 | 50 | 1010.6 |
| 20260505000702 | 69 | 248 | 1.7 | 6.1 | 0.00 | 0.00 | 0.00 | 51 | 1010.3 |
| 20260505000200 | 69 | 206 | 4.3 | 5.2 | 0.00 | 0.00 | 0.00 | 50 | 1010.7 |
| 20260504235656 | 69 | 328 | 3.5 | 4.3 | 0.00 | 0.00 | 0.00 | 50 | 1010.2 |
| 20260504235152 | 69 | 184 | 5.2 | 7.8 | 0.00 | 0.00 | 0.00 | 49 | 1010.1 |
| 20260504234650 | 69 | 217 | 2.6 | 5.2 | 0.00 | 0.00 | 0.00 | 49 | 1010.2 |
| 20260504234147 | 70 | 297 | 2.6 | 2.6 | 0.00 | 0.00 | 0.00 | 49 | 1010.2 |
| 20260504233643 | 70 | 165 | 2.6 | 5.2 | 0.00 | 0.00 | 0.00 | 48 | 1010.2 |
| 20260504233138 | 71 | 246 | 1.7 | 2.6 | 0.00 | 0.00 | 0.00 | 49 | 1010.2 |
| 20260504232636 | 71 | 251 | 1.7 | 1.7 | 0.00 | 0.00 | 0.00 | 48 | 1010.1 |
| 20260504232128 | 71 | 202 | 2.6 | 2.6 | 0.00 | 0.00 | 0.00 | 47 | 1010.2 |
| 20260504231624 | 71 | 187 | 2.6 | 5.2 | 0.00 | 0.00 | 0.00 | 48 | 1010.2 |
| 20260504231121 | 71 | 216 | 5.2 | 6.1 | 0.00 | 0.00 | 0.00 | 47 | 1010.1 |
| 20260504230617 | 71 | 235 | 2.6 | 7.0 | 0.00 | 0.00 | 0.00 | 47 | 1010.3 |
| 20260504230116 | 72 | 219 | 4.3 | 7.8 | 0.00 | 0.00 | 0.00 | 46 | 1010.2 |
| 20260504225614 | 72 | 197 | 2.6 | 4.3 | 0.00 | 0.00 | 0.00 | 48 | 1010.6 |
| 20260504225110 | 72 | 293 | 2.6 | 6.1 | 0.00 | 0.00 | 0.00 | 46 | 1010.2 |
| 20260504224607 | 72 | 196 | 5.2 | 7.8 | 0.00 | 0.00 | 0.00 | 47 | 1010.7 |
| 20260504224104 | 73 | 306 | 2.6 | 2.6 | 0.00 | 0.00 | 0.00 | 47 | 1010.6 |
| 20260504223601 | 72 | 217 | 4.3 | 5.2 | 0.00 | 0.00 | 0.00 | 46 | 1010.2 |
| 20260504223056 | 73 | 302 | 2.6 | 6.1 | 0.00 | 0.00 | 0.00 | 47 | 1010.4 |
| 20260504222553 | 72 | 343 | 2.6 | 4.3 | 0.00 | 0.00 | 0.00 | 48 | 1010.9 |
| 20260504222050 | 72 | 222 | 3.5 | 5.2 | 0.00 | 0.00 | 0.00 | 47 | 1010.4 |
| 20260504221548 | 73 | 227 | 3.5 | 5.2 | 0.00 | 0.00 | 0.00 | 46 | 1010.4 |
| 20260504221044 | 74 | 181 | 6.1 | 7.8 | 0.00 | 0.00 | 0.00 | 44 | 1010.4 |
| 20260504220541 | 74 | 225 | 2.6 | 5.2 | 0.00 | 0.00 | 0.00 | 47 | 1010.6 |
| 20260504220038 | 74 | 242 | 4.3 | 5.2 | 0.00 | 0.00 | 0.00 | 45 | 1010.4 |
| 20260504215534 | 74 | 295 | 2.6 | 5.2 | 0.00 | 0.00 | 0.00 | 47 | 1010.4 |
| 20260504215032 | 74 | 270 | 3.5 | 7.8 | 0.00 | 0.00 | 0.00 | 46 | 1010.4 |
| 20260504214528 | 74 | 211 | 4.3 | 7.8 | 0.00 | 0.00 | 0.00 | 45 | 1010.4 |
| 20260504214024 | 73 | 201 | 7.0 | 8.7 | 0.00 | 0.00 | 0.00 | 45 | 1010.6 |
| 20260504213521 | 73 | 210 | 4.3 | 8.7 | 0.00 | 0.00 | 0.00 | 45 | 1010.6 |
| 20260504213018 | 74 | 207 | 5.2 | 13.0 | 0.00 | 0.00 | 0.00 | 44 | 1010.7 |
| 20260504212514 | 74 | 227 | 4.3 | 7.0 | 0.00 | 0.00 | 0.00 | 45 | 1010.2 |
| 20260504212011 | 74 | 232 | 5.2 | 8.7 | 0.00 | 0.00 | 0.00 | 44 | 1010.8 |
| 20260504211508 | 73 | 208 | 6.1 | 7.8 | 0.00 | 0.00 | 0.00 | 44 | 1010.3 |
| 20260504211006 | 73 | 213 | 7.0 | 8.7 | 0.00 | 0.00 | 0.00 | 45 | 1010.6 |